Regional Weather Roundup
Issued by NWS

Home | Current Version | Previous Version | Graphics & Text | Print | Product List | Glossary Off
Versions: 1 2 3 4 5 6 7 8 9 10 11 12 13 14 15 16 17 18 19 20 21 22 23 24 25 26 27 28 29 30 31 32 33 34 35 36 37 38 39 40 41 42 43 44 45 46 47 48 49 50

000
ASUS43 KLOT 190810
RWRIL

ILLINOIS REGIONAL WEATHER ROUNDUP
NATIONAL WEATHER SERVICE CHICAGO/ROMEOVILLE IL
300 AM CDT FRI SEP 19 2014

NOTE: "FAIR" INDICATES FEW OR NO CLOUDS BELOW 12,000 FEET WITH NO
SIGNIFICANT WEATHER AND/OR OBSTRUCTIONS TO VISIBILITY.

* THESE STATIONS ARE NOT UNDER NWS QUALITY CONTROL. THEY ALSO MAY NOT
  REPORT WEATHER SUCH AS PRECIPITATION OR FOG.

ILZ001-002-007-009-015-016-024-190900-
NORTHWEST ILLINOIS

CITY           SKY/WX    TMP DP  RH WIND       PRES   REMARKS
MOLINE         CLEAR     52  49  89 E7        30.11S FOG
STERLING*      CLEAR     46  43  87 CALM      30.12F
SAVANNA*       CLEAR     53  50  90 CALM      30.13R
$$

ILZ003-004-008-010-011-017-018-190900-
NORTH CENTRAL ILLINOIS

CITY           SKY/WX    TMP DP  RH WIND       PRES   REMARKS
ROCKFORD       FOG       55  54  96 SE9       30.15F VSB 3/4
FREEPORT*      FOG       52  51  96 SE10      30.15S VSB 1
ROCHELLE*      FOG       55  54  97 E8        30.13F VSB 3/4
DE KALB*       FOG       55  55  98 E7        30.14F VSB 1/2
PERU*            N/A     52  51  95 E5        30.13F FOG
$$

ILZ005-006-012>014-019>023-190900-
NORTHEAST ILLINOIS

CITY           SKY/WX    TMP DP  RH WIND       PRES   REMARKS
CHICAGO-OHARE  CLEAR     55  52  89 E5        30.14F
CHICAGO-MIDWAY CLEAR     60  53  77 SE7       30.14F
AURORA         FOG       51  49  92 CALM      30.14F VSB<1/4
LANSING*       CLEAR     53  51  92 SE5       30.16F
JOLIET*        CLEAR     56  53  89 E8        30.14F FOG
WAUKEGAN       PTCLDY    56  55  97 SE5       30.14F FOG
DUPAGE AIRPORT CLEAR     57  55  93 E5        30.13F FOG
KANKAKEE*      CLEAR     51  50  97 E5        30.15F
WHEELING       CLEAR     52  49  89 CALM      30.15F
MORRIS*        FOG       50  50 100 E5        30.13F VSB 1/4
ROMEOVILLE*    CLEAR     55  55  97 SE8       30.14F FOG
NORTHERLY ISL    N/A     60  54  80 SE10        N/A
$$

LMZ740>746-190900-
SOUTHERN LAKE MICHIGAN

STATION/POSITION SKY/WX   TEMP    WIND        PRES    VSBY  WAVE
                          AIR SEA DIR/SP/G                  HT/PER
                          (F)     (DEG/KT/KT) (MB)    (MI)  (FT/S)
SOUTHERN BUOY              61 62  140/ 14/ 17 1021.4F         2/ 4
WAUKEGAN HARBOR            61     140/  9/ 10   N/A
HARRISON CRIB              62     150/ 16/ 20   N/A
BURNHAM HARBOR             60     140/ 12       N/A
CALUMET HARBOR             60     140/  4/  9 1019.7F
MICHIGAN CITY              58     110/  9/ 12   N/A
MICHIGAN CITY 6N           60 65  140/ 12/ 16   N/A           2/ 2
ST. JOSEPH                 58 66  120/ 14/ 17   N/A           2/ 2
$$

ILZ025>027-034>036-040-047-049-050-058-095>099-190900-
WEST-CENTRAL ILLINOIS

CITY           SKY/WX    TMP DP  RH WIND       PRES   REMARKS
QUINCY         CLEAR     55  50  83 SE6       30.08F
GALESBURG*     CLEAR     52  49  89 E5        30.10F
MACOMB*        CLEAR     47  46  96 CALM      30.12S
JACKSONVILLE*  CLEAR     51  49  91 SE3       30.10F
PITTSFIELD*    CLEAR     52  50  93 CALM      30.10S FOG
$$

ILZ028>032-037-038-041>044-048-051>054-059>061-190900-
CENTRAL ILLINOIS

CITY           SKY/WX    TMP DP  RH WIND       PRES   REMARKS
PONTIAC          N/A     52  52 100 E3        30.13F FOG
DECATUR        CLEAR     50  46  86 E3        30.12F
PEORIA         CLEAR     55  51  86 E6        30.11F
LACON*         CLEAR     53  51  94 E9        30.11F FOG
LINCOLN*       CLEAR     49  47  92 CALM      30.10F
SPRINGFIELD    CLEAR     51  47  86 NE6       30.11S
TAYLORVILLE    CLEAR     52  48  87 E3        30.11S
$$

ILZ033-039-045-046-055>057-062-063-190900-
EAST-CENTRAL ILLINOIS

CITY           SKY/WX    TMP DP  RH WIND       PRES   REMARKS
CHAMPAIGN      CLEAR     50  47  89 E6        30.13F
DANVILLE*      CLEAR     51  48  88 CALM      30.12R
RANTOUL*       CLEAR     54  48  80 CALM      30.14F
MATTOON        CLEAR     52  48  86 CALM      30.11F
PARIS*         CLEAR     47  47  99 CALM      30.13F
$$

ILZ079-100>102-190900-
SOUTHWEST ILLINOIS

CITY           SKY/WX    TMP DP  RH WIND       PRES   REMARKS
ALTON          CLEAR     53  52  96 CALM      30.09S
BELLEVILLE     CLEAR     54  54 100 CALM      30.07F FOG
CAHOKIA*       CLEAR     53  51  93 CALM      30.08S FOG
SPARTA*        CLEAR     53  52  97 E3        30.08F
$$

ILZ064>066-069>071-074>076-080>082-084>086-088>090-092>094-190900-
SOUTH-CENTRAL ILLINOIS

CITY           SKY/WX    TMP DP  RH WIND       PRES   REMARKS
CARBONDALE     CLEAR     50  49  96 CALM      30.07F FOG
CAIRO*         CLEAR     57  53  86 CALM      30.05S
EFFINGHAM*     CLEAR     51  48  89 CALM      30.10F
MARION         CLEAR     54  52  94 CALM      30.07F FOG
MT. VERNON     CLEAR     54  48  82 N3        30.09F
CENTRALIA*       N/A     51  49  93 E3        30.09S FOG
SALEM*         CLEAR     58  54  86 E3        30.09F
METROPOLIS*    CLEAR     53  53 100 CALM      30.05F
$$

ILZ067-068-072-073-078-083-087-091-190900-
SOUTHEAST ILLINOIS

CITY           SKY/WX    TMP DP  RH WIND       PRES   REMARKS
LAWRENCEVILLE  CLEAR     53  50  89 NE6       30.10F
FLORA*         CLEAR     53  51  92 CALM      30.10F
FAIRFIELD*     CLEAR    N/A N/A N/A N3        30.09S
HARRISBURG*    CLEAR     54  54 100 N3        30.08F
ROBINSON*      CLEAR     48  48  99 CALM      30.13S FOG
CARMI*         CLEAR     52  52  99 CALM      30.08S
$$

ABBREVIATIONS USED IN REMARKS
   TC - TEMPERATURE IN CELSIUS
  WCI - WIND CHILL INDEX
   HX - HEAT INDEX
  VSB - VISIBILITY
$$



USA.gov is the U.S. government's official web portal to all federal, state and local government web resources and services.